Flag for Switzerland Weather past 2 weeks in Riehen, Basel-Stadt, Switzerland

Now
64 °F

Overcast.


Feels Like: 64 °F
Forecast: 54 / 77 °F
Wind: 3 mph from Northwest

Location: Bale-Mulhouse

Current Time: Aug 1, 2015 at 12:01:30 AM

Latest Report: Jul 31, 2015 at 11:00 PM


Visibility: 25 mi

Pressure: 29.91 "Hg

Humidity: 58%

Dew point: 49 °F

Location of RiehenLocation

Historic Weather in Riehen — Graph

°F

Riehen temperature yesterday

Maximum temperature yesterday: 74 °F (at 3:00 PM)
Minimum temperature yesterday: 46 °F (at 6:00 AM)
Average temperature yesterday: 62 °F

Past Weeks' High & Low Weather Summary

 TemperatureHumidityPressure
High97 °F (Jul 17, 3:00 PM)98% (Jul 30, 4:00 AM)30.14 "Hg (Jul 30, 4:00 AM)
Low46 °F (Jul 31, 6:00 AM)22% (Jul 17, 5:00 PM)29.65 "Hg (Jul 24, 7:00 PM)
Average70 °F64%29.93 "Hg
* Reported Jul 16 10:00 PM — Jul 31 10:00 PM, Riehen, Weather by CustomWeather, © 2015

Note: Actual official high and low records may vary slightly from our data, if they occured in-between our weather recording intervals... More about our weather records

Advertising

Riehen weather history for previous 24 hours

 ConditionsComfort  
Time TempWeatherWind HumidityBarometerVisibility
10:00 PM
Fri, Jul 31
66 °FOvercast.6 mph52%29.90 "Hg25 mi
9:00 PM67 °FOvercast.8 mph51%29.89 "Hg25 mi
8:00 PM70 °FOvercast.8 mph48%29.88 "Hg25 mi
7:00 PM72 °FOvercast.8 mph45%29.88 "Hg25 mi
6:00 PM73 °FOvercast.9 mph44%29.89 "Hg25 mi
5:00 PM73 °FOvercast.9 mph44%29.90 "Hg25 mi
4:00 PM73 °FOvercast.9 mph43%29.92 "Hg25 mi
3:00 PM74 °FOvercast.10 mph43%29.94 "Hg25 mi
2:00 PM72 °FOvercast.7 mph42%29.95 "Hg25 mi
1:00 PM70 °FLow clouds.7 mph46%29.99 "Hg25 mi
12:00 PM66 °FOvercast.7 mph51%30.01 "Hg25 mi
11:00 AM64 °FOvercast.6 mph55%30.03 "Hg25 mi
10:00 AM60 °FPartly sunny.6 mph59%30.05 "Hg25 mi
9:00 AM57 °FCool.6 mph70%30.07 "Hg28 mi
8:00 AM52 °FPassing clouds.5 mph86%30.09 "Hg25 mi
7:00 AM47 °FPassing clouds.2 mph93%30.09 "Hg25 mi
6:00 AM46 °FPassing clouds.2 mph93%30.10 "Hg25 mi
4:00 AM49 °FPassing clouds.6 mph86%30.09 "Hg19 mi
3:00 AM51 °FCool.6 mph83%30.09 "Hg37 mi
2:00 AM52 °FCool.5 mph81%30.09 "Hg37 mi
1:00 AM53 °FCool.6 mph75%30.09 "Hg37 mi
12:00 AM57 °FPassing clouds.8 mph67%30.08 "Hg19 mi
Weather by CustomWeather, © 2015

See weather overviewHow to use our weather pages